Location: Leeds
(37.2390°N, 113.3580°W)
Time: 16:45:59
(UTC-06:00)

Daily predictions for brighter satellites

Satellite Brightness Start Highest point End
(mag) Time Altitude Azimuth Time Altitude Azimuth Time Altitude Azimuth
FALCON 9 R/B 1.3 19:47:42 10° WSW 19:50:01 46° SSE 19:54:27 10° E
Resurs 01 Rocket 3.6 19:53:15 10° E 19:54:42 11° ENE 19:56:09 10° NE
Cosmos 1356 Rocket 4.4 19:53:08 10° NNE 19:56:49 27° ENE 20:00:30 10° SE
Cosmos 1606 Rocket 3.6 19:52:42 10° S 19:57:03 86° W 20:01:24 10° N
SKYMED 2 4.3 19:53:39 10° N 19:57:55 59° WNW 20:02:11 10° SSW
H-2A R/B 3.7 19:56:37 10° SE 19:59:44 26° ENE 20:02:54 10° NNE
Cosmos 1953 Rocket 3.5 19:57:37 10° N 20:01:57 72° E 20:06:15 10° SSE
Cosmos 2058 Rocket 3.0 19:58:46 10° S 20:03:03 62° E 20:07:23 10° NNE
TIMED 4.5 20:01:45 10° NNW 20:06:08 76° ENE 20:10:29 10° SSE
Thor Agena Rocket 3.5 20:01:18 10° NNE 20:06:32 68° ESE 20:11:39 10° S
Cosmos 1656 Rocket 3.8 20:04:37 10° NNW 20:10:08 54° ENE 20:15:33 10° SE
FENGYUN 3A 3.6 20:05:03 10° SSE 20:10:22 77° ENE 20:15:45 10° N
Cosmos 2184 Rocket 4.2 20:04:24 10° SSE 20:10:24 48° E 20:16:28 10° NNE
NOAA 12 4.2 20:07:06 10° SSE 20:12:20 86° WSW 20:17:38 10° NNW
ISS -2.7 20:15:28 10° S 20:18:16 26° SE 20:19:45 19° E
Cosmos 482 Debris 4.4 20:14:57 10° NW 20:18:51 51° SW 20:21:12 11° SSE
Cosmos 1766 3.6 20:16:34 10° SSE 20:20:18 43° E 20:24:01 10° NNE
Cosmos 1707 3.0 20:17:09 10° N 20:21:05 75° W 20:24:59 10° S
Cosmos 304 Rocket 3.8 20:16:32 10° SSW 20:21:18 87° WNW 20:26:08 10° NNE
Meteor 2-13 Rocket 4.5 20:16:19 10° S 20:22:26 86° W 20:28:32 10° N
Cosmos 1544 3.6 20:19:14 10° SSE 20:22:33 36° E 20:25:53 10° NNE
Meteor 1-22 Rocket 4.3 20:17:21 10° S 20:22:57 58° E 20:28:23 10° NNE
OAO 3 Copernicus 4.4 20:18:31 10° WSW 20:23:33 68° S 20:27:11 19° E
COSMOS 2406 3.2 20:19:31 10° S 20:25:08 66° ESE 20:30:50 10° NNE
Meteor 2-5 Rocket 3.8 20:19:41 10° N 20:25:33 89° E 20:31:16 10° S
Cosmos 990 Rocket 4.3 20:21:02 10° NNW 20:26:10 70° WSW 20:31:15 10° S
Cosmos 1378 3.5 20:24:21 10° NNW 20:28:06 66° W 20:31:50 10° S
USA 234 4.2 20:23:29 10° SSE 20:29:44 47° SW 20:36:01 10° NW
Cosmos 2327 Rocket 4.4 20:24:22 10° S 20:30:24 64° E 20:36:25 10° NNE
Cosmos 1125 Rocket 4.0 20:29:14 10° N 20:34:10 39° ENE 20:37:25 19° SE
Cosmos 1758 4.3 20:35:13 24° E 20:35:13 24° E 20:38:25 10° NE
FengYun 1-2 T 4.2 20:31:14 10° SSE 20:36:50 82° ENE 20:42:25 10° N
ALOS 3.3 20:35:18 10° S 20:39:47 47° W 20:44:19 10° NNW
Envisat 3.8 20:38:12 23° ESE 20:40:10 30° ENE 20:44:33 10° N
Geosat 4.1 20:35:17 10° SSE 20:40:18 77° WSW 20:45:21 10° NNW
In-Cosmos 22 4.3 20:34:48 10° N 20:40:28 60° E 20:46:09 10° SSE
BREEZE M DEB (TANK) 3.3 20:33:57 10° NW 20:40:32 51° NNE 20:41:48 31° E
FREGAT/IRIS 3.7 20:43:00 10° S 20:45:56 45° W 20:48:51 10° NNW
Cosmos 1805 3.1 20:49:42 10° S 20:53:33 65° E 20:57:25 10° NNE
SL-27 R/B 2.8 20:55:06 10° S 21:03:38 - NNE 20:57:54 47° SSE
CZ-2D R/B 3.1 20:58:42 38° SSE 21:00:03 75° ENE 21:03:52 10° N
Cosmos 1900 4.3 20:58:55 10° SSW 21:03:57 75° ESE 21:09:07 10° NNE
ATLAS 2AS CENTAUR R/B 4.1 20:58:17 10° NNW 21:04:46 26° NE 21:07:05 23° ENE
Resurs 1-3 3.5 21:05:33 47° SE 21:06:35 64° ENE 21:10:57 10° N
Milstar 3 Cent rocket 3.0 21:06:32 10° SW 21:10:49 26° S 21:11:02 26° SSE
Cosmos 540 Rocket 4.2 21:09:23 10° SW 21:14:21 52° WNW 21:19:21 10° N
NOSS 3-1 (A) 4.2 21:06:47 10° NW 21:14:35 78° WSW 21:20:55 20° SSE
Cosmos 2154 Rocket 3.9 21:09:23 10° S 21:15:35 87° E 21:21:53 10° N
Cosmos 1953 3.5 21:28:52 34° N 21:28:52 34° N 21:31:15 10° N
Cosmos 2341 Rocket 3.8 21:21:41 10° S 21:27:51 77° E 21:34:05 10° N
Resurs 01 Rocket 2.0 21:29:30 45° SSW 21:30:37 62° W 21:35:01 10° NNW
GP-B 3.8 21:32:11 10° N 21:36:31 52° W 21:38:34 28° SSW
Cosmos 1697 Rocket 4.3 21:32:59 10° N 21:35:54 21° NNE 21:35:54 21° NNE
Cosmos 1980 Rocket 4.3 21:35:34 10° NNE 21:36:53 13° NNE 21:36:53 13° NNE
Spot 2 Rocket 4.0 21:45:18 43° SSW 21:46:32 55° W 21:51:29 10° NNW
Nadezhda 3 Rocket 4.4 21:42:54 10° NNW 21:49:03 60° W 21:52:39 25° SSW
Meteor 2-21 4.3 21:50:19 75° NE 21:50:19 75° NE 21:56:01 10° N
ISS -0.7 21:51:47 10° W 21:52:28 14° W 21:52:28 14° W
Cosmos 2285 Rocket 3.9 21:50:01 10° SSW 21:56:25 87° WNW 22:02:55 10° NNE
ATLAS CENTAUR R/B 4.2 21:49:34 10° NW 21:57:31 28° WSW 21:59:19 23° SW
SL-8 Rocket 4.5 22:20:05 55° NNW 22:20:05 55° NNW 22:25:04 10° N
ATLAS 2AS CENTAUR R/B 3.6 22:48:46 10° NW 22:54:31 51° NW 22:54:31 51° NW
